Regional Weather Roundup
Issued by NWS

Home | Current Version | Previous Version | Text Only | Print | Product List | Glossary Off
Versions: 1 2 3 4 5 6 7 8 9 10 11 12 13 14 15 16 17 18 19 20 21 22 23 24 25 26 27 28 29 30 31 32 33 34 35 36 37 38 39 40 41 42 43 44 45 46 47 48 49 50

000
ASUS43 KLMK 052002
RWRKY
KENTUCKY REGIONAL WEATHER ROUNDUP
NATIONAL WEATHER SERVICE LOUISVILLE KY
300 PM EST THU MAR 05 2015

NOTE "FAIR" INDICATES FEW OR NO CLOUDS BELOW 12,000 FEET
WITH NO SIGNIFICANT WEATHER AND/OR OBSTRUCTIONS TO VISIBILITY.

KYZ001>023-026-027-061>063-070>075-052100-
WESTERN AND SOUTH CENTRAL KENTUCKY

CITY           SKY/WX    TMP DP  RH WIND       PRES   REMARKS
PADUCAH        SUNNY     26   7  44 NW14      30.51S WCI  14
HENDERSON      SUNNY     23   5  46 N14       30.51R WCI  11
OWENSBORO      SUNNY     24  11  57 NW17      30.48  WCI  11
HOPKINSVILLE   SUNNY     26  10  52 NW12G17   30.45F WCI  15
BOWLING GREEN  PTSUNNY   26  15  63 NW8       30.44R WCI  18
GLASGOW        NOT AVBL
$$

KYZ024-025-028>034-038-045-046-053-052100-
NORTH CENTRAL KENTUCKY

CITY           SKY/WX    TMP DP  RH WIND       PRES   REMARKS
LOUISVILLE/SDF PTSUNNY   27  12  53 NW8       30.41F WCI  19
LOUISVILLE/LOU PTSUNNY   26  11  52 N10       30.42S WCI  16
FORT KNOX      NOT AVBL
$$

KYZ035>037-039>044-047>052-055>060-089>105-052100-
NORTHEAST KENTUCKY

CITY           SKY/WX    TMP DP  RH WIND       PRES   REMARKS
LEXINGTON      FLURRIES  21  13  71 N13       30.36R WCI   9
COVINGTON      PTSUNNY   24   7  48 NW14      30.37S WCI  12
FRANKFORT      CLOUDY    22  12  65 NW9       30.37S WCI  12
$$

KYZ054-064>069-076>088-106>120-052100-
SOUTHEAST KENTUCKY

CITY           SKY/WX    TMP DP  RH WIND       PRES   REMARKS
JACKSON        LGT SNOW  21  16  81 VRB6      30.28R VSB 3/4 WCI  13
LONDON         MIX PCPN  22  14  71 N9        30.29R WCI  12
SOMERSET       NOT AVBL
MIDDLESBORO    CLOUDY    26  21  81 NW7       30.25R WCI  19
MONTICELLO     FLURRIES  22  17  81 N12       30.38R WCI  11
$$



USA.gov is the U.S. government's official web portal to all federal, state and local government web resources and services.